Location: ??
(35.5052°N, 139.7262°E)
Time: 08:26:19
(UTC+00:00)

Tsikada Rocket - Visible Passes

Search period start: 28 October 2021 00:00
Search period end: 07 November 2021 00:00
Orbit: 957 x 1010 km, 82.9° (Epoch: 27 October)

Date Brightness Start Highest point End Pass type
(mag) Time Alt. Az. Time Alt. Az. Time Alt. Az.
28 Oct 5.7 10:23:53 10° N 10:25:33 19° N 10:25:33 19° N visible
29 Oct 5.8 09:07:57 10° NNE 09:08:49 12° NE 09:08:49 12° NE visible
29 Oct 5.8 10:51:45 10° NNW 10:53:41 21° NNW 10:53:41 21° NNW visible
30 Oct 5.3 09:34:28 10° NNE 09:37:04 22° NNE 09:37:04 22° NNE visible
30 Oct 6.2 11:20:08 10° NNW 11:21:57 18° NW 11:21:57 18° NW visible
31 Oct 4.8 10:01:49 10° N 10:05:28 37° NNE 10:05:28 37° NNE visible
31 Oct 6.7 11:49:32 10° NW 11:50:22 12° WNW 11:50:22 12° WNW visible
01 Nov 5.3 08:45:57 10° NNE 08:49:13 16° ENE 08:49:13 16° ENE visible
01 Nov 4.7 10:29:39 10° NNW 10:34:08 47° NW 10:34:08 47° NW visible
02 Nov 4.5 09:12:26 10° NNE 09:17:58 33° ENE 09:18:20 33° E visible
02 Nov 5.5 10:58:00 10° NNW 11:03:18 31° W 11:03:18 31° W visible
03 Nov 3.9 09:39:44 10° N 09:45:56 65° E 09:49:05 31° SSE visible
03 Nov 6.5 11:27:20 10° NW 11:30:47 16° W 11:34:17 10° WSW visible
04 Nov 5.3 08:23:57 10° NNE 08:27:42 16° ENE 08:31:29 10° ESE visible
04 Nov 4.3 10:07:33 10° NNW 10:13:44 65° W 10:19:56 10° S visible
05 Nov 4.6 08:50:22 10° NNE 08:55:54 32° ENE 09:01:27 10° SE visible
05 Nov 5.5 10:35:53 10° NNW 10:41:20 33° W 10:46:49 10° SSW visible
06 Nov 3.9 09:17:40 10° N 09:23:53 63° E 09:30:08 10° SSE visible
06 Nov 6.5 11:05:08 10° NW 11:08:45 16° W 11:12:23 10° WSW visible
